Regional Weather Roundup
Issued by NWS Northern Indiana

Home | Current Version | Previous Version | Text Only | Print | Product List | Glossary Off
Versions: 1 2 3 4 5 6 7 8 9 10 11 12 13 14 15 16 17 18 19 20 21 22 23 24 25 26 27 28 29 30 31 32 33 34 35 36 37 38 39 40 41 42 43 44 45 46 47 48 49 50

000
ASUS43 KIWX 310410
RWRIWX

KIWX WEATHER ROUNDUP
NATIONAL WEATHER SERVICE NORTHERN INDIANA
1200 AM EDT FRI JUL 31 2015

NOTE: "FAIR" INDICATES FEW OR NO CLOUDS BELOW 12,000 FEET WITH NO
SIGNIFICANT WEATHER AND/OR OBSTRUCTIONS TO VISIBILITY.

* THESE STATIONS ARE NOT UNDER NWS QUALITY CONTROL. THEY ALSO MAY NOT
  REPORT WEATHER SUCH AS PRECIPITATION OR FOG.

INZ001>027-310500-
NORTHERN INDIANA

CITY           SKY/WX    TMP DP  RH WIND       PRES   REMARKS
GARY*          CLEAR     77  61  57 W6        30.02S
VALPARAISO     CLEAR     70  60  70 SW6       30.03S
MICHIGAN CITY* CLEAR     68  59  73 SW3       30.02S
LAPORTE*       CLEAR     69  61  77 SW5       30.03S
KNOX*          CLEAR     68  59  73 SW6       30.02S
SOUTH BEND     CLEAR     70  60  70 SW9       30.02S
GOSHEN         CLEAR     66  59  78 S3        30.02S
MONTICELLO*    CLEAR     70  64  80 SW3       30.04R
LOGANSPORT*    CLEAR     64  57  77 SW5       30.06R
ROCHESTER*     CLEAR     72  61  68 SW5       30.05R
WARSAW*        CLEAR     64  61  88 CALM      30.03S
ANGOLA*        CLEAR     64  61  88 CALM      30.02S
FORT WAYNE     CLEAR     67  60  78 SW6       30.04S
HUNTINGTON*    CLEAR     70  61  73 SW5       30.04S
PERU/GRISSOM   CLEAR     66  62  85 SW8       30.04S
MARION*        CLEAR     65  60  83 CALM      30.06S

$$
INZ028>050-310500-
CENTRAL INDIANA

CITY           SKY/WX    TMP DP  RH WIND       PRES   REMARKS
LAFAYETTE      CLEAR     68  65  90 W5        30.05S
KOKOMO*        CLEAR     68  59  73 W7        30.06R
MUNCIE*        CLEAR     67  60  78 SW3       30.06S
INDIANAPOLIS   PTCLDY    71  61  70 W6        30.06S

$$
MIZ043>046-050>051-056>058-064>065-071>073-077>080-310500-
SOUTHWEST LOWER MICHIGAN

CITY           SKY/WX    TMP DP  RH WIND       PRES   REMARKS
BATTLE CREEK   CLEAR     69  59  70 SW9       30.00R
BENTON HARBOR  CLEAR     69  61  75 CALM      29.99S
COLDWATER*     CLEAR     66  58  73 SW5       30.00S
HILLSDALE*     CLEAR     69  58  67 SW3       30.01S
HOLLAND        CLEAR     75  57  53 W7        29.98R
GRAND RAPIDS   CLEAR     70  60  70 SW8       29.97R
KALAMAZOO      CLEAR     69  59  70 SW7       30.00R
STURGIS*       CLEAR     70  57  64 CALM      30.01S
THREE RIVERS*  FAIR      66  59  77 CALM      30.01S

$$
OHZ001>008-015>018-024>025-310500-
NORTHWEST OHIO

CITY           SKY/WX    TMP DP  RH WIND       PRES   REMARKS
WAUSEON*       FAIR      66  61  82 W6        30.00S
DEFIANCE       CLEAR     69  58  67 SW5       30.01S
FINDLAY        CLEAR     65  59  81 SW6       30.01S
TOLEDO EXPRESS CLEAR     70  57  63 SW6       29.99S
TOLEDO METCALF CLEAR     71  58  63 SW5       30.00S
LIMA           CLEAR     63  58  83 CALM      30.04S

$$
AND FOR LAKE MICHIGAN COASTAL AND OPEN LAKE BUOY OBSERVATIONS

STATION/POSITION TEMP    WIND        PRES    VSBY  WAVE
                 AIR SEA DIR/SP/G                  HT/PER
                 (F)     (DEG/KT/KT) (MB)    (MI)  (FT/S)
CALUMET HARBOR    80     230/  4/  7   N/A
MICHIGAN CITY     76     190/  7/  8   N/A
BURNS HARBOR      80     230/  9/ 11 1016.6R
SAINT JOSEPH      76     190/  8/ 10 1015.9R
4 MI NW BRIDGMAN  76 74  280/ 10/ 14   N/A           1/ 3
MICHIGAN CITY     76 75  240/  8/ 10   N/A           1/ 3

$$
&&


USA.gov is the U.S. government's official web portal to all federal, state and local government web resources and services.